Location: Austin
(30.3000°N, 97.7500°W)
Time: 23:38:17
(UTC-05:00)

BREEZE-M DEB (TANK) - Pass Details

Date: 05 September 2024
Orbit: 375 x 20082 km, 49.3° (Epoch: 14 September)

Event Time Altitude Azimuth Distance (km) Brightness Sun altitude
Rises 19:53:40 0° 198° (SSW) 2,461 6.3 -2.0°
Reaches altitude 10° 19:55:08 10° 188° (S) 1,836 5.5 -2.3°
Maximum altitude 19:58:33 38° 117° (ESE) 1,369 4.4 -3.1°
Drops below altitude 10° 20:08:47 10° 53° (NE) 5,497 7.5 -5.2°
Sets 20:17:37 0° 48° (NE) 8,977 8.6 -7.1°
